User: anonymous   Login
Location: Unspecified
(0.0000°N, 0.0000°E)
Time: 19:35:40
(UTC+00:00)
Language:

GONETS M 06 - Orbit

View from above orbital plane
View from above orbital plane
View from above satellite
View from above satellite

Ground track
Ground track

The orbit data is extracted from the following two-line orbital elements,

1 39250U 13048B   21025.76281065  .00000025  00000-0  11258-3 0  9997
2 39250  82.4870 131.1376 0018244 216.1957 143.7889 12.42947778334520
Epoch (UTC): 25 January 2021 18:18:26
Eccentricity: 0.0018244
inclination: 82.4870°
perigee height: 1480 km
apogee height: 1508 km
right ascension of ascending node: 131.1376°
argument of perigee: 216.1957°
revolutions per day: 12.42947778
mean anomaly at epoch: 143.7889°
orbit number at epoch: 33452

The dashed part of the orbit path shows where the satellite is in the earth's shadow,  

DLR